Hourly Data Report for October 03, 2017

All times are specified in Local Standard Time (LST). Add 1 hour to adjust for Daylight Saving Time where and when it is observed.

CLYDE RIVER A
NUNAVUT

70°29'09.000" N
68°31'01.000" W
26.50 m
2400804
71090
YCY

Related Data

No related data is available for this station

Download Data

Hourly Data (October 2017)
Hourly Data Report for October 3, 2017
Temp Definition
°C
Dew Point Temp Definition
°C
Rel Hum Definition
%
Wind Dir Definition
10's deg

Wind Spd Definition
km/h
Visibility Definition
km
Stn Press Definition
kPa
Hmdx Definition


Wind Chill Definition


Weather Definition


TIME
00:00 Legend Double Dagger -0.1 -2.0 87 14 22 16.1 99.45   -6 LegendNANA
01:00 Legend Double Dagger 0.3 -1.8 86 15 28 16.1 99.38     LegendNANA
02:00 Legend Double Dagger 0.8 -2.6 78 16 21 16.1 99.31     LegendNANA
03:00 Legend Double Dagger 0.4 -1.8 85 15 17 16.1 99.22     Snow
04:00 Legend Double Dagger 0.8 -1.4 85 18 8 16.1 99.16     LegendNANA
05:00 Legend Double Dagger 1.0 -0.8 88 19 43 16.1 99.00     LegendNANA
06:00 Legend Double Dagger 1.0 -1.1 86 17 50 16.1 98.94     LegendNANA
07:00 Legend Double Dagger 1.1 -1.1 85 16 43 16.1 98.90     LegendNANA
08:00 Legend Double Dagger 1.0 -1.2 85 17 39 16.1 98.81     LegendNANA
09:00 Legend Double Dagger 1.1 -1.1 85 17 34 16.1 98.73     LegendNANA
10:00 Legend Double Dagger 1.5 -1.1 83 18 41 16.1 98.66     LegendNANA
11:00 Legend Double Dagger 1.2 -0.8 87 16 32 16.1 98.61     LegendNANA
12:00 Legend Double Dagger 1.2 -0.9 86 17 39 16.1 98.51     LegendNANA
13:00 Legend Double Dagger 1.4 -1.3 82 16 34 16.1 98.46     LegendNANA
14:00 Legend Double Dagger 1.0 -0.3 91 16 37 16.1 98.37     LegendNANA
15:00 Legend Double Dagger 1.0 -0.2 92 15 34 16.1 98.33     Rain
16:00 Legend Double Dagger 1.1 -0.1 92 15 18 16.1 98.25     LegendNANA
17:00 Legend Double Dagger 1.0 0.0 93 13 28 16.1 98.15     LegendNANA
18:00 Legend Double Dagger 0.6 0.2 97 13 32 11.3 98.11     LegendNANA
19:00 Legend Double Dagger 0.4 0.0 97 14 17 14.5 98.05     Rain
20:00 Legend Double Dagger 0.4 0.0 97 14 21 11.3 97.96     Snow
21:00 Legend Double Dagger 0.3 0.0 98 15 18 6.4 97.90     Snow
22:00 Legend Double Dagger 0.3 0.0 98 15 5 14.5 97.87     Rain
23:00 Legend Double Dagger 0.6 0.0 96 13 11 16.1 97.82     LegendNANA

Notes on Data Quality.

Legend

  • E = Estimated
  • M = Missing
  • NA = Not Available
  • ‡ = Partner data that is not subject to review by the National Climate Archives
Date modified: